Weather History for K8D3 - September, 2013

Change the Weather History Date:

Tuesday, September 3, 2013

  Actual Average Record
Temperature  
Mean Temperature 66 °F 65 °F  
Max Temperature 83 °F 77 °F 96 °F (1976)
Min Temperature 48 °F 53 °F 38 °F (1946)
Degree Days  
Heating Degree Days 0 3  
Month to date heating degree days 11 9  
Since 1 July heating degree days 60 52  
Cooling Degree Days 1 3  
Month to date cooling degree days 1 9  
Year to date cooling degree days 536 488  
Growing Degree Days 15 (Base 50)    
Moisture  
Dew Point 57 °F    
Average Humidity 74    
Maximum Humidity 100    
Minimum Humidity 47    
Precipitation  
Precipitation 0.00 in 0.07 in 0.92 in (2005)
Month to date precipitation 0.00 0.21  
Year to date precipitation 18.67 16.95  
Sea Level Pressure  
Sea Level Pressure 29.97 in    
Wind  
Wind Speed 5 mph (SSE)    
Max Wind Speed 12 mph    
Max Gust Speed 15 mph    
T = Trace of Precipitation, MM = Missing Value Source: NWS Daily Summary

Daily Weather History Graph

Daily Weather History Graph

Search for Another Location

Airport or City:

Trip Planner

Search our weather history database for the weather conditions in past years. The results will help you decide how hot, cold, wet, or windy it might be!

Date:

Astronomy

Sep. 03, 2013 Rise Set
Actual Time 6:51 AM CDT 8:01 PM CDT
Civil Twilight 6:21 AM CDT 8:32 PM CDT
Nautical Twilight 5:44 AM CDT 9:08 PM CDT
Astronomical Twilight 5:05 AM CDT 9:47 PM CDT
Moon 5:04 AM CDT (9/3) 6:50 PM CDT (9/3)
Length of Visible Light 14h 10m
Length of Day
13h 09m
Waning Crescent, 3% of the Moon is Illuminated
Sep 3
Waning Crescent
Sep 5
New
Sep 12
First Quarter
Sep 19
Full
Sep 26
Last Quarter

Hourly Weather History & Observations

Time (CDT) Temp. Heat Index Dew Point Humidity Pressure Visibility Wind Dir Wind Speed Gust Speed Precip Events Conditions
12:56 AM 52.0 °F - 48.0 °F 86% 30.00 in - SSW 6.9 mph - N/A   Unknown
1:56 AM 50.0 °F - 48.0 °F 93% 29.99 in - SSE 4.6 mph - N/A   Unknown
2:56 AM 48.0 °F - 46.9 °F 96% 30.00 in - South 4.6 mph - N/A   Unknown
3:56 AM 48.0 °F - 46.0 °F 93% 29.99 in - South 3.5 mph - N/A   Unknown
4:56 AM 48.0 °F - 46.0 °F 93% 29.99 in - SE 4.6 mph - N/A   Unknown
5:56 AM 48.0 °F - 46.9 °F 96% 30.00 in - SE 5.8 mph - N/A   Unknown
6:56 AM 48.9 °F - 46.9 °F 93% 30.00 in - SE 6.9 mph - N/A   Unknown
7:56 AM 53.1 °F - 51.1 °F 93% 30.01 in - SE 3.5 mph - N/A   Unknown
8:56 AM 59.0 °F - 55.9 °F 90% 30.00 in - Calm Calm - N/A   Unknown
9:56 AM 68.0 °F - 59.0 °F 73% 29.99 in - SSE 3.5 mph - N/A   Unknown
10:56 AM 73.0 °F - 62.1 °F 68% 29.99 in - SE 5.8 mph - N/A   Unknown
11:56 AM 75.9 °F - 62.1 °F 62% 29.97 in - SSE 8.1 mph - N/A   Unknown
12:56 PM 78.1 °F - 62.1 °F 58% 29.96 in - SE 8.1 mph - N/A   Unknown
1:56 PM 81.0 °F 81.7 °F 61.0 °F 50% 29.96 in - South 8.1 mph - N/A   Unknown
2:56 PM 82.0 °F 82.4 °F 60.1 °F 47% 29.94 in - SE 8.1 mph - N/A   Unknown
3:56 PM 81.0 °F 81.9 °F 62.1 °F 52% 29.93 in - South 6.9 mph - N/A   Unknown
4:56 PM 81.0 °F 82.5 °F 64.0 °F 56% 29.93 in - SSE 6.9 mph - N/A   Unknown
5:56 PM 80.1 °F 81.7 °F 64.0 °F 58% 29.93 in - SSE 9.2 mph - N/A   Unknown
6:56 PM 77.0 °F - 64.9 °F 66% 29.95 in - SSE 4.6 mph - N/A   Unknown
7:56 PM 71.1 °F - 64.9 °F 81% 29.95 in - SSE 5.8 mph - N/A   Unknown
8:56 PM 66.9 °F - 64.0 °F 90% 29.95 in - South 4.6 mph - N/A   Unknown
9:56 PM 64.0 °F - 62.1 °F 93% 29.96 in - SSW 3.5 mph - N/A   Unknown
10:56 PM 61.0 °F - 60.1 °F 97% 29.96 in - Calm Calm - N/A   Unknown
11:56 PM 61.0 °F - 61.0 °F 100% 29.96 in - Calm Calm - N/A   Unknown